ATLAS 5 CENTAUR DEB, 44895

Orbit data source: Space-Track

ATLAS 5 CENTAUR DEB, 44895 is space debris in HEO originally from a launch on Wed, 17 Oct 2018 UTC launched from the Air Force Eastern Test Range (AFETR). Debris objects in space refer to the collection of defunct objects orbiting the Earth. Examples of debris include non-operational satellites, rocket bodies, and fragments generated from explosions, collisions, or faulty payload assembly.

Loading next visibility...
Identifier
44895, 2018-079BJ
Orbit
HEO
Country
Flag of USUS
Related business
Flag of USUnited Launch Alliance/Lockheed Martin (US)
Manufacturer
ULA Decatur
Mission
Spacecraft
Bus & Motor
Unknown
Mass
Unknown
Launch date (UTC)
2018-10-17 (8 years ago)
Launch vehicle
Unknown
Launch site
Air Force Eastern Test Range (AFETR)
Object type
Payload
Rocket body
Debris
Shape & HBR
Unknown shape, 1.1 m
Radar Cross Section
RCS unknown

Expand to show TLE details & history
Last TLE update: 1 day ago

TLE from 1 day ago
0 ATLAS 5 CENTAUR DEB
1 44895U 18079BJ  26236.26052789 -.00000180  00000-0  00000-0 0  9993
2 44895  13.1488  34.2413 4301910 320.4411  14.8401  1.87756065 47595
Epoch: 2026-08-24T06:15Z
TLE epoch observation values (Epoch: 2026-08-24T06:15:09.609Z)
Latitude
-0.00008°
Longitude
-32.04394°
Altitude
10,601.338 km
Speed
5.709 km/s
True Right ascension
02h 17m 09s
True Declination
0° 00' 00"
Sunlit
Object was in daylight at epoch
Visualization orbit readout
Latitude
Unknown
Longitude
Unknown
Altitude
Unknown
Speed
Unknown
Apparent Right ascension
Unknown
Apparent Declination
Unknown
Sunlit
N/A
Visualization observer readout
Local Sidereal Time
21:11:31
Azimuth
Unknown
Elevation
Unknown
Doppler factor
Unknown
Orbital elements
Apogee altitude
33,319.498 km
Perigee altitude
9,437.981 km
Semi-major axis
27,756.876 km
Eccentricity
0.43019
Inclination
13.1488°
RAAN
34.2413°
Arg. of periapsis
320.4411°
True anomaly
39.32681°
Mean anomaly
14.8401°
Eccentric anomaly
25.42052°
Mean motion
0.46934 °/min
Orbital period
767.04 mins
BSTAR
0
Loading maneuver chart data...
Computing Atmospheric mass density...

Documentation

Showing up to 5 results
|